Location: Birdton
(46.1166°N, 66.8166°W)
Time: 16:06:20
(UTC-03:00)

Daily predictions for brighter satellites

Satellite Brightness Start Highest point End
(mag) Time Altitude Azimuth Time Altitude Azimuth Time Altitude Azimuth
Cosmos 1727 Rocket 4.2 21:50:26 10° S 21:56:45 85° W 22:03:10 10° N
Cosmos 1356 Rocket 3.9 21:55:48 10° SSE 21:59:50 44° E 22:03:56 10° NNE
CZ-4B DEB 3.6 21:58:55 10° S 22:01:48 46° W 22:04:42 10° NNW
Lacrosse 5 2.3 21:56:48 10° NW 22:01:50 60° NE 22:06:50 10° ESE
SPOT 5 3.4 21:59:14 10° SE 22:03:52 47° ENE 22:08:47 10° N
Cosmos 1867 3.8 22:01:23 10° SSW 22:06:38 51° ESE 22:11:55 10° NE
Cosmos 1408 Rocket 4.2 22:03:41 10° SSE 22:07:38 37° E 22:11:38 10° NNE
Cosmos 1076 Rocket 3.6 22:04:34 10° S 22:08:52 60° E 22:13:10 10° NNE
USA 234 3.7 22:07:25 10° ENE 22:13:29 40° SE 22:19:32 10° SSW
Cosmos 614 Rocket 4.5 22:09:46 10° SSW 22:14:58 67° WNW 22:20:09 10° NNE
Cosmos 2297 Rocket 3.2 22:09:56 10° SW 22:15:26 51° WNW 22:20:59 10° NNE
Meteor 1-21 Rocket 4.2 22:12:24 10° S 22:18:01 69° E 22:23:35 10° NNE
RESURS DK-1 2.8 22:14:14 10° NNW 22:18:19 52° ENE 22:22:11 11° SE
Cosmos 1850 Rocket 4.1 22:13:37 10° SSW 22:18:47 87° WNW 22:24:02 10° NNE
Cosmos 468 Rocket 4.2 22:13:43 10° NNW 22:18:49 59° ENE 22:23:43 11° SE
Cosmos 2221 3.1 22:14:47 10° NNW 22:19:07 60° W 22:23:26 10° S
Abrixas rocket 2.3 22:17:16 10° WNW 22:20:31 73° NNE 22:23:46 10° E
MetOp-B 4.2 22:15:48 10° SSE 22:21:09 89° E 22:26:34 10° NNW
Tiangong 1 1.3 22:18:40 10° WSW 22:21:18 38° S 22:23:56 10° ESE
Cosmos 2016 Rocket 4.1 22:15:08 10° N 22:21:24 66° E 22:27:32 10° SSE
Cosmos 2263 Rocket 3.6 22:22:49 11° SE 22:26:17 18° E 22:29:58 10° ENE
ERS-1 Rocket 3.4 22:23:10 10° S 22:28:08 61° WSW 22:33:09 10° NNW
Okean 3 Rocket 4.1 22:24:01 10° SSW 22:28:29 63° WNW 22:32:56 10° N
SL-14 R/B 4.1 22:26:42 11° SSE 22:30:03 33° E 22:33:37 10° NNE
ATLAS 5 CENTAUR R/B 2.0 22:27:27 10° SW 22:32:09 78° NW 22:37:21 10° NE
Cosmos 1626 4.2 22:30:33 10° ESE 22:32:10 13° E 22:33:54 10° ENE
Cosmos 1300 3.2 22:28:30 10° N 22:32:13 46° ENE 22:35:17 14° SSE
H-2A R/B 2.3 22:29:37 11° SSE 22:34:41 65° ENE 22:40:04 10° N
Cosmos 1726 2.1 22:31:19 10° N 22:35:00 64° E 22:38:08 14° SSE
Cosmos 1328 4.4 22:33:46 12° SSE 22:37:10 39° E 22:40:57 10° NNE
Cosmos 1766 Rocket 3.6 22:39:36 10° S 22:43:56 86° W 22:48:19 10° N
Terra 2.6 22:40:45 14° SE 22:44:26 40° ENE 22:48:52 10° N
Cosmos 2233 Rocket 4.5 22:40:17 10° N 22:46:16 46° ENE 22:51:03 15° SE
Cosmos 1328 Rocket 3.5 22:44:01 10° N 22:48:23 71° E 22:51:49 16° SSE
Cosmos 1603 3.8 22:43:31 10° NNW 22:49:12 80° WSW 22:53:56 15° SSE
USA 245 3.7 22:46:50 12° S 22:49:54 58° W 22:54:07 10° NNW
Cosmos 332 Rocket 3.8 22:47:34 10° NNW 22:52:30 86° WSW 22:56:25 16° SSE
Cosmos 1515 Rocket 3.7 22:48:46 10° N 22:53:03 57° ENE 22:56:08 18° SSE
SL-08 RB Rocket 4.0 22:49:54 11° S 22:54:10 67° WSW 22:58:48 10° NNW
Cosmos 2228 Rocket 3.1 22:51:19 10° N 22:55:57 78° E 22:59:31 17° SSE
Cosmos 1151 Rocket 3.4 22:53:42 10° N 22:57:59 50° ENE 23:00:51 19° SSE
H-2A R/B 2.7 22:57:03 18° SE 22:59:53 41° ENE 23:03:53 10° N
Cosmos 1743 Rocket 3.5 22:56:32 14° S 23:00:12 65° E 23:04:30 10° NNE
Cosmos 1674 4.5 22:58:42 10° SW 23:02:04 30° WNW 23:05:26 10° N
Cosmos 1943 3.3 22:59:47 10° NNW 23:05:28 73° ENE 23:09:32 19° SE
SL-16 R/B 4.1 23:01:21 10° NW 23:05:37 22° W 23:09:51 10° SSW
Cosmos 1455 3.6 23:02:31 10° NNE 23:05:50 26° ENE 23:07:41 18° ESE
Cosmos 2084 4.4 23:02:30 10° WSW 23:06:17 44° NW 23:09:58 10° NNE
H-2A ROCKET BODY 4.2 23:02:07 10° S 23:06:24 19° SE 23:16:10 10° ESE
ARGOS 4.0 23:01:48 10° S 23:07:00 47° W 23:12:14 10° NNW
IGS 5A 3.7 23:04:43 21° SSE 23:07:21 59° ENE 23:11:28 10° N
DMSP B5D2-2 4.1 23:03:04 10° NNE 23:08:18 65° ESE 23:12:46 14° S
ERBS 2.3 23:08:55 10° NW 23:12:18 71° SW 23:13:54 28° SE
Cosmos 1356 3.8 23:11:02 25° SSE 23:12:40 46° E 23:16:03 10° NNE
SME Rocket 4.3 23:15:18 18° ESE 23:17:36 31° ENE 23:21:48 10° N
Cosmos 1814 Rocket 4.3 23:12:18 10° NNW 23:17:37 63° WSW 23:21:25 19° S
Cosmos 2123 Rocket 4.1 23:11:46 10° SSW 23:17:56 76° W 23:24:11 10° N
Cosmos 1486 Rocket 4.0 23:20:43 11° SSW 23:25:45 78° ESE 23:31:05 10° NNE
Cosmos 841 Rocket 3.5 23:24:01 10° NNW 23:29:18 79° WSW 23:32:30 24° SSE
Cosmos 2285 Rocket 4.2 23:23:15 10° NNW 23:29:34 65° ENE 23:33:43 23° SE
SPOT 1/Viking Rocket 4.5 23:25:32 13° SSW 23:29:50 41° W 23:34:43 10° NNW
Cosmos 1763 Rocket 3.8 23:26:48 10° NNW 23:31:50 59° WSW 23:35:00 22° S
Cosmos 1703 3.3 23:31:38 29° S 23:33:33 65° E 23:37:31 10° NNE
Cosmos 220 Rocket 4.4 23:30:43 10° SSW 23:35:06 64° WNW 23:39:29 10° NNE
CZ-2C R/B 4.3 23:31:50 10° NE 23:35:17 17° E 23:36:50 15° ESE
Meteor 1-11 4.3 23:32:13 15° S 23:37:07 87° W 23:42:59 10° N
Cosmos 371 Rocket 4.4 23:38:22 10° NW 23:42:46 36° WSW 23:45:45 18° SSW
PSLV R/B 2.8 23:43:44 55° S 23:44:16 86° WSW 23:47:09 10° NNW
Cosmos 2058 3.0 23:41:54 23° SSW 23:44:26 77° W 23:48:42 10° N
Lacrosse 5 3.0 23:40:08 10° WNW 23:44:33 31° SW 23:46:42 22° SSW
Sich 1 4.0 23:45:24 26° ESE 23:46:34 31° E 23:50:20 10° NNE
DELTA 2 DEB (DPAF) 4.2 23:44:56 30° SE 23:47:01 66° ENE 23:51:27 10° N
deb Chang Zheng 4 3.5 23:42:53 10° NNE 23:47:16 80° ESE 23:49:38 27° S
ALOS 2 4.3 23:50:01 16° ESE 23:52:08 23° ENE 23:55:35 10° NNE
Cosmos 1707 Rocket 3.8 23:50:33 10° N 23:54:58 57° ENE 23:56:44 33° SE
Tiangong 1 2.8 23:54:05 10° WSW 23:55:09 19° WSW 23:55:09 19° WSW
